Location: Poughquag
(41.6090°N, 73.6820°W)
Time: 15:00:13
(UTC-04:00)

Altair - Pass Details

Date: 02 June 2020
Orbit: 1501 x 1683 km, 47.2° (Epoch: 05 July)

Event Time Altitude Azimuth Distance (km) Brightness Sun altitude
Rises 04:05:06 0° 296° (WNW) 4,932 10.0 -12.2°
Reaches altitude 10° 04:08:16 10° 295° (WNW) 3,947 9.4 -11.7°
Maximum altitude 04:18:25 75° 213° (SSW) 1,724 7.6 -10.4°
Drops below altitude 10° 04:28:24 10° 130° (SE) 3,885 9.7 -9.0°
Sets 04:31:30 0° 129° (SE) 4,850 10.3 -8.5°
